FW3814 Weather Reports


time (UTC)temp
F
wind
direction
speed
knots
gust
knots
rain 1hr
in
rain 24hr
in
rain mn
in
humidity
%
barometer
mb
20260509203525 64 0 0.0 0.0 0.00 0.00 0.00 50 1013.5
20260509203025 64 0 0.0 0.0 0.00 0.00 0.00 49 1013.5
20260509202504 64 0 0.0 0.0 0.00 0.00 0.00 49 1013.3
20260509202004 64 0 0.0 0.0 0.00 0.00 0.00 49 1013.5
20260509201525 64 0 0.0 0.0 0.00 0.00 0.00 49 1013.5
20260509201004 64 0 0.0 0.0 0.00 0.00 0.00 49 1013.5
20260509200525 64 0 0.0 0.0 0.00 0.00 0.00 48 1013.5
20260509200004 64 0 0.0 0.0 0.00 0.00 0.00 48 1013.4
20260509195504 65 0 0.0 0.0 0.00 0.00 0.00 47 1013.2
20260509195004 65 0 0.0 0.0 0.00 0.00 0.00 47 1013.3
20260509194504 65 0 0.0 0.0 0.00 0.00 0.00 47 1012.9
20260509194019 66 0 0.0 0.0 0.00 0.00 0.00 47 1012.9
20260509193504 66 0 0.0 0.0 0.00 0.00 0.00 46 1013.0
20260509193004 66 0 0.0 0.0 0.00 0.00 0.00 46 1012.9
20260509192504 66 0 0.0 0.0 0.00 0.00 0.00 46 1012.8
20260509192004 66 0 0.0 0.0 0.00 0.00 0.00 45 1012.9
20260509191504 66 0 0.0 0.0 0.00 0.00 0.00 45 1012.8
20260509191004 66 0 0.0 0.0 0.00 0.00 0.00 45 1012.9
20260509190504 66 0 0.0 0.0 0.00 0.00 0.00 46 1012.8
20260509190004 66 0 0.0 0.0 0.00 0.00 0.00 46 1012.9
20260509185525 66 0 0.0 0.0 0.00 0.00 0.00 45 1013.0
20260509185004 67 0 0.0 0.0 0.00 0.00 0.00 46 1013.0
20260509184504 67 0 0.0 0.0 0.00 0.00 0.00 46 1012.9
20260509184004 67 202 0.0 1.7 0.00 0.00 0.00 47 1013.0
20260509183504 67 202 0.0 1.7 0.00 0.00 0.00 47 1012.9
20260509183004 67 0 0.0 0.0 0.00 0.00 0.00 47 1012.9
20260509182504 68 0 0.0 0.0 0.00 0.00 0.00 48 1012.8
20260509182025 68 0 0.0 0.0 0.00 0.00 0.00 47 1012.9
20260509181504 69 0 0.0 0.0 0.00 0.00 0.00 45 1012.8
20260509181004 70 0 0.0 0.0 0.00 0.00 0.00 44 1012.7
20260509180525 70 0 0.0 0.0 0.00 0.00 0.00 42 1012.9
20260509180004 71 0 0.0 0.0 0.00 0.00 0.00 41 1012.8
20260509175525 71 0 0.0 0.0 0.00 0.00 0.00 41 1012.8
20260509175004 71 0 0.0 0.0 0.00 0.00 0.00 41 1012.8
20260509174504 71 0 0.0 0.0 0.00 0.00 0.00 40 1012.7
20260509174004 71 0 0.0 0.0 0.00 0.00 0.00 40 1012.7
20260509173504 72 0 0.0 0.0 0.00 0.00 0.00 40 1012.8
20260509173004 72 0 0.0 0.0 0.00 0.00 0.00 40 1012.8
20260509172504 72 275 0.0 1.7 0.00 0.00 0.00 40 1012.8
20260509172004 72 268 0.0 1.7 0.00 0.00 0.00 40 1012.9
20260509171504 73 305 0.0 1.7 0.00 0.00 0.00 36 1012.7
20260509171025 73 315 0.0 1.7 0.00 0.00 0.00 35 1012.8
20260509170504 74 315 0.0 0.9 0.00 0.00 0.00 36 1012.9
20260509170004 74 332 0.0 0.9 0.00 0.00 0.00 36 1012.7
20260509165504 74 328 0.0 0.9 0.00 0.00 0.00 35 1012.9
20260509165025 74 295 0.0 0.9 0.00 0.00 0.00 35 1012.8
20260509164504 74 298 0.0 0.9 0.00 0.00 0.00 35 1012.9
20260509164004 74 302 1.7 3.5 0.00 0.00 0.00 35 1012.9
20260509163504 74 279 2.6 4.3 0.00 0.00 0.00 34 1012.9
20260509163025 74 276 2.6 4.3 0.00 0.00 0.00 35 1012.9
20260509162504 74 309 3.5 4.3 0.00 0.00 0.00 36 1012.9
20260509162004 74 304 4.3 7.0 0.00 0.00 0.00 35 1013.0
20260509161504 74 273 4.3 7.0 0.00 0.00 0.00 34 1013.0
20260509161025 75 247 3.5 5.2 0.00 0.00 0.00 34 1013.1
20260509160504 75 242 2.6 3.5 0.00 0.00 0.00 35 1013.1
20260509160004 75 280 3.5 6.1 0.00 0.00 0.00 35 1013.1
20260509155504 74 298 5.2 7.8 0.00 0.00 0.00 34 1013.1
20260509155004 74 279 6.1 7.8 0.00 0.00 0.00 35 1013.3
20260509154504 74 268 7.0 9.6 0.00 0.00 0.00 34 1013.3
20260509154025 74 261 6.1 9.6 0.00 0.00 0.00 34 1013.3
20260509153504 74 237 4.3 6.1 0.00 0.00 0.00 36 1013.4
20260509153025 74 216 4.3 7.0 0.00 0.00 0.00 36 1013.2
20260509152504 74 242 5.2 7.0 0.00 0.00 0.00 36 1013.2
20260509152004 74 282 5.2 7.0 0.00 0.00 0.00 37 1013.3
20260509151504 74 286 7.0 8.7 0.00 0.00 0.00 37 1013.2
20260509151004 74 261 6.1 8.7 0.00 0.01 0.00 37 1013.2
20260509150504 75 262 5.2 6.1 0.00 0.01 0.00 37 1013.2
20260509150004 75 258 4.3 7.8 0.00 0.02 0.00 37 1013.3
20260509145504 75 221 2.6 7.8 0.00 0.04 0.00 37 1013.2
20260509145025 74 179 3.5 6.1 0.00 0.05 0.00 38 1013.1
20260509144504 74 180 5.2 7.0 0.00 0.06 0.00 37 1013.3
20260509144004 74 201 5.2 7.0 0.00 0.07 0.00 37 1013.2
20260509143504 75 210 4.3 8.7 0.00 0.07 0.00 39 1013.1
20260509143004 75 236 5.2 8.7 0.00 0.08 0.00 39 1013.3
20260509142504 74 257 7.0 8.7 0.00 0.09 0.00 38 1013.2
20260509142004 75 238 5.2 8.7 0.00 0.09 0.00 39 1013.3
20260509141504 75 205 4.3 8.7 0.00 0.11 0.00 40 1013.4
20260509141004 74 157 5.2 7.0 0.00 0.13 0.00 40 1013.4
20260509140504 74 158 5.2 6.1 0.00 0.14 0.00 40 1013.4
20260509140005 74 198 6.1 10.4 0.00 0.20 0.00 40 1013.5
20260509135504 74 198 5.2 10.4 0.00 0.34 0.00 40 1013.5
20260509135004 74 258 4.3 8.7 0.00 0.37 0.00 40 1013.6
20260509134504 74 252 5.2 8.7 0.00 0.38 0.00 40 1013.7
20260509134004 74 209 6.1 10.4 0.00 0.38 0.00 40 1013.7
20260509133504 74 213 6.1 10.4 0.00 0.39 0.00 40 1013.9
20260509133004 74 200 3.5 7.8 0.00 0.39 0.00 40 1013.9
20260509132504 74 212 4.3 7.8 0.00 0.41 0.00 40 1013.9
20260509132004 74 268 3.5 7.8 0.00 0.41 0.00 40 1014.0
20260509131525 74 305 3.5 5.2 0.00 0.41 0.00 41 1014.1
20260509131004 74 265 3.5 5.2 0.00 0.41 0.00 41 1014.0
20260509130504 73 220 5.2 9.6 0.00 0.41 0.00 40 1013.9
20260509130004 73 221 7.0 9.6 0.00 0.41 0.00 40 1014.1
20260509125504 73 254 7.0 9.6 0.00 0.41 0.00 40 1014.2
20260509125004 74 263 6.1 9.6 0.00 0.41 0.00 41 1014.2
20260509124504 73 267 5.2 9.6 0.00 0.41 0.00 41 1014.1
20260509124004 73 294 3.5 7.0 0.00 0.41 0.00 41 1014.2
20260509123504 73 267 3.5 9.6 0.00 0.41 0.00 42 1014.1
20260509123004 73 268 6.1 9.6 0.00 0.41 0.00 41 1014.2
20260509122504 73 288 7.0 9.6 0.00 0.41 0.00 41 1014.1
20260509122004 73 270 6.1 9.6 0.00 0.41 0.00 41 1014.1
20260509121504 73 234 4.3 7.0 0.00 0.41 0.00 41 1014.3
20260509121025 73 197 4.3 7.0 0.00 0.41 0.00 41 1014.2
20260509120504 73 228 4.3 7.0 0.00 0.41 0.00 41 1014.3
20260509120025 73 240 3.5 7.0 0.00 0.41 0.00 41 1014.2
20260509115504 72 215 3.5 7.0 0.00 0.41 0.00 42 1014.4
20260509115004 72 186 4.3 7.0 0.00 0.41 0.00 44 1014.3
20260509114504 72 113 4.3 6.1 0.00 0.41 0.00 44 1014.4
20260509114025 72 123 4.3 6.1 0.00 0.41 0.00 44 1014.5
20260509113504 72 151 2.6 4.3 0.00 0.41 0.00 46 1014.5
20260509113004 72 215 2.6 4.3 0.00 0.41 0.00 48 1014.5
20260509112525 72 268 2.6 6.1 0.00 0.41 0.00 48 1014.6
20260509112004 72 279 2.6 6.1 0.00 0.41 0.00 47 1014.7
20260509111504 72 236 3.5 7.0 0.00 0.41 0.00 48 1014.7
20260509111004 72 216 5.2 7.0 0.00 0.41 0.00 49 1014.8
20260509110504 72 229 6.1 7.0 0.00 0.41 0.00 49 1014.9
20260509110025 72 287 6.1 7.0 0.00 0.41 0.00 49 1015.0
20260509105504 72 290 5.2 7.0 0.00 0.41 0.00 50 1015.0
20260509105004 72 264 4.3 7.0 0.00 0.41 0.00 50 1015.2
20260509104504 72 290 2.6 7.0 0.00 0.41 0.00 50 1015.3
20260509104004 71 305 3.5 6.1 0.00 0.41 0.00 50 1015.3
20260509103504 71 297 4.3 6.1 0.00 0.41 0.00 50 1015.3
20260509103004 71 298 3.5 6.1 0.00 0.41 0.00 51 1015.3
20260509102540 71 281 3.5 5.2 0.00 0.41 0.00 51 1015.5
20260509102004 71 263 4.3 6.1 0.00 0.41 0.00 51 1015.5
20260509101525 70 289 4.3 6.1 0.00 0.41 0.00 50 1015.5
20260509101004 70 359 4.3 4.3 0.00 0.41 0.00 50 1015.5
20260509100504 70 40 3.5 4.3 0.00 0.41 0.00 50 1015.6
20260509100005 70 113 3.5 5.2 0.00 0.41 0.00 50 1015.6
20260509095504 70 190 3.5 5.2 0.00 0.41 0.00 51 1015.7
20260509095004 70 195 4.3 5.2 0.00 0.41 0.00 52 1015.7
20260509094525 70 167 3.5 5.2 0.00 0.41 0.00 52 1015.7
20260509094025 70 341 2.6 3.5 0.00 0.41 0.00 53 1015.8
20260509093504 69 353 3.5 5.2 0.00 0.41 0.00 52 1015.8
20260509093025 69 1 3.5 5.2 0.00 0.41 0.00 52 1015.8
20260509092505 69 31 1.7 3.5 0.00 0.41 0.00 54 1015.7
20260509091525 69 357 1.7 3.5 0.00 0.41 0.00 55 1015.7
20260509091025 69 7 0.9 2.6 0.00 0.41 0.00 55 1015.8
20260509090504 68 335 0.9 3.5 0.00 0.41 0.00 55 1015.9
20260509090004 68 322 2.6 3.5 0.00 0.41 0.00 55 1015.7
20260509085504 68 316 1.7 3.5 0.00 0.41 0.00 56 1015.9
20260509085004 68 12 1.7 2.6 0.00 0.41 0.00 58 1015.9
20260509084504 68 39 2.6 3.5 0.00 0.41 0.00 58 1015.9
20260509084004 68 153 2.6 3.5 0.00 0.41 0.00 57 1015.9
20260509083504 68 119 1.7 3.5 0.00 0.41 0.00 58 1015.9
20260509083004 68 43 1.7 2.6 0.00 0.41 0.00 60 1015.9
20260509082504 67 24 1.7 2.6 0.00 0.41 0.00 61 1016.0
20260509082004 67 350 0.9 2.6 0.00 0.41 0.00 61 1015.7
20260509081504 67 7 0.9 3.5 0.00 0.41 0.00 61 1015.8
20260509081004 66 63 2.6 3.5 0.00 0.41 0.00 62 1015.9
20260509080504 66 69 2.6 3.5 0.00 0.41 0.00 62 1016.0
20260509080004 66 38 2.6 3.5 0.00 0.41 0.00 62 1016.0
20260509075504 65 40 2.6 3.5 0.00 0.41 0.00 62 1016.0
20260509075025 65 43 2.6 4.3 0.00 0.41 0.00 63 1016.0
20260509074504 65 29 3.5 4.3 0.00 0.41 0.00 63 1016.0
20260509074004 65 25 2.6 3.5 0.00 0.41 0.00 64 1016.2
20260509073504 65 21 1.7 3.5 0.00 0.41 0.00 65 1015.9
20260509073004 65 50 1.7 3.5 0.00 0.41 0.00 66 1016.1
20260509072525 64 59 2.6 3.5 0.00 0.41 0.00 66 1015.9
20260509072004 64 61 1.7 2.6 0.00 0.41 0.00 68 1016.0
20260509071525 64 52 1.7 4.3 0.00 0.41 0.00 69 1016.0
20260509071004 63 42 0.9 4.3 0.00 0.41 0.00 72 1016.0
20260509070504 63 315 0.0 0.9 0.00 0.41 0.00 74 1016.0
20260509070004 63 355 0.0 1.7 0.00 0.41 0.00 74 1016.0
20260509065525 62 14 0.9 1.7 0.00 0.41 0.00 74 1015.9
20260509065004 61 11 1.7 3.5 0.00 0.41 0.00 74 1015.9
20260509064524 61 6 2.6 3.5 0.00 0.41 0.00 74 1016.1
20260509064025 60 4 2.6 3.5 0.00 0.41 0.00 74 1016.0
20260509063504 60 359 3.5 3.5 0.00 0.41 0.00 75 1015.9
20260509063004 59 357 3.5 6.1 0.00 0.41 0.00 75 1016.0
20260509062504 59 11 4.3 6.1 0.00 0.41 0.00 76 1016.0
20260509062004 58 15 3.5 4.3 0.00 0.41 0.00 77 1015.8
20260509061525 58 4 3.5 4.3 0.00 0.41 0.00 77 1015.9
20260509061004 57 4 3.5 4.3 0.00 0.41 0.00 78 1015.9
20260509060504 57 2 2.6 4.3 0.00 0.41 0.00 78 1016.0
20260509060004 57 356 2.6 4.3 0.00 0.41 0.00 78 1015.9
20260509055525 56 354 3.5 4.3 0.00 0.41 0.00 78 1015.8
20260509055004 56 360 3.5 3.5 0.00 0.41 0.00 78 1016.0
20260509054525 56 358 2.6 3.5 0.00 0.41 0.00 79 1015.7
20260509054025 56 1 2.6 3.5 0.00 0.41 0.00 79 1015.8
20260509053504 56 4 2.6 3.5 0.00 0.41 0.00 80 1015.9
20260509053004 55 7 2.6 3.5 0.00 0.41 0.00 80 1016.0
20260509052519 55 14 3.5 4.3 0.00 0.41 0.00 81 1016.0
20260509052004 54 19 2.6 4.3 0.00 0.41 0.00 81 1016.0
20260509051504 54 9 2.6 3.5 0.00 0.41 0.00 84 1015.6
20260509051004 54 360 2.6 2.6 0.00 0.41 0.00 84 1015.8
20260509050504 53 351 1.7 2.6 0.00 0.41 0.00 84 1015.8
20260509050004 53 335 1.7 2.6 0.00 0.41 0.00 84 1015.8
20260509045525 53 326 2.6 3.5 0.00 0.41 0.00 85 1015.7
20260509045004 53 343 3.5 4.3 0.00 0.41 0.00 85 1015.5
20260509044504 53 7 4.3 5.2 0.00 0.41 0.00 86 1015.5
20260509044004 52 18 4.3 5.2 0.00 0.41 0.00 86 1015.2
20260509043504 52 17 4.3 7.0 0.00 0.41 0.00 87 1015.1
20260509043004 51 16 4.3 7.0 0.00 0.41 0.00 86 1015.2
20260509042504 51 18 4.3 4.3 0.00 0.41 0.00 86 1015.2
20260509042004 51 10 3.5 4.3 0.00 0.41 0.00 86 1015.2
20260509041525 51 3 3.5 3.5 0.00 0.41 0.00 85 1015.1
20260509041004 51 359 3.5 3.5 0.00 0.41 0.00 85 1015.0
20260509040504 51 356 3.5 3.5 0.00 0.41 0.00 84 1014.9
20260509040004 51 357 3.5 3.5 0.00 0.41 0.00 84 1014.9
20260509035504 51 4 2.6 3.5 0.00 0.41 0.00 84 1015.0
20260509035003 51 8 3.5 3.5 0.00 0.41 0.00 83 1015.0
20260509034525 51 11 3.5 4.3 0.00 0.41 0.00 83 1014.9
20260509034004 51 16 4.3 6.1 0.00 0.41 0.00 82 1014.8
20260509033504 51 19 5.2 6.1 0.00 0.41 0.00 82 1014.9
20260509033004 52 18 5.2 6.1 0.00 0.41 0.00 81 1015.0
20260509032504 52 16 5.2 7.0 0.00 0.41 0.00 81 1014.9
20260509032004 53 13 5.2 7.0 0.00 0.41 0.00 81 1015.0
20260509031504 53 8 4.3 6.1 0.00 0.41 0.00 81 1014.9
20260509031025 53 13 5.2 7.0 0.00 0.41 0.00 81 1015.0
20260509030504 53 11 4.3 7.0 0.00 0.41 0.00 81 1015.0
20260509030004 53 9 3.5 4.3 0.00 0.41 0.00 82 1015.2
20260509025504 53 20 3.5 4.3 0.00 0.41 0.00 82 1015.2
20260509025004 53 25 3.5 5.2 0.00 0.41 0.00 82 1015.1
20260509024504 53 28 4.3 7.0 0.00 0.41 0.00 83 1015.0
20260509024004 53 33 4.3 7.0 0.00 0.41 0.00 83 1015.0
20260509023504 53 25 3.5 4.3 0.00 0.41 0.00 83 1014.9
20260509023004 53 24 3.5 4.3 0.00 0.41 0.00 83 1014.7
20260509022504 53 23 3.5 4.3 0.00 0.41 0.00 83 1014.8
20260509022004 53 10 3.5 3.5 0.00 0.41 0.00 84 1014.8
20260509021504 53 14 3.5 6.1 0.00 0.41 0.00 84 1014.9
20260509021004 53 21 5.2 6.1 0.00 0.41 0.00 85 1014.9
20260509020525 53 18 6.1 7.0 0.00 0.41 0.00 86 1014.9
20260509020004 53 17 5.2 7.0 0.00 0.41 0.00 86 1015.2
20260509015504 53 14 5.2 6.1 0.00 0.41 0.00 86 1015.0
20260509015003 53 11 5.2 6.1 0.00 0.41 0.00 86 1015.3
20260509014524 53 14 4.3 5.2 0.00 0.41 0.00 86 1015.1
20260509014004 53 9 3.5 5.2 0.00 0.41 0.00 86 1015.2
20260509013504 53 5 3.5 4.3 0.00 0.41 0.00 85 1015.3
20260509013004 53 7 3.5 4.3 0.00 0.41 0.00 85 1015.3
20260509012504 52 9 2.6 3.5 0.00 0.41 0.00 85 1015.5
20260509012004 52 12 2.6 3.5 0.00 0.41 0.00 84 1015.2
20260509011524 52 13 2.6 3.5 0.00 0.41 0.00 84 1015.5
20260509011025 53 4 3.5 3.5 0.00 0.41 0.00 83 1015.5
20260509010504 53 3 3.5 3.5 0.00 0.41 0.00 83 1015.2
20260509010004 53 10 4.3 7.0 0.00 0.41 0.00 83 1015.5
20260509005524 53 15 5.2 7.0 0.00 0.41 0.00 82 1015.3
20260509005004 53 14 5.2 6.1 0.00 0.41 0.00 82 1015.2
20260509004503 54 11 4.3 5.2 0.00 0.41 0.00 82 1015.3
20260509004003 54 8 4.3 5.2 0.00 0.41 0.00 82 1015.3
20260509003503 54 9 4.3 4.3 0.00 0.41 0.00 79 1015.2
20260509003025 54 13 3.5 4.3 0.00 0.41 0.00 80 1015.5
20260509002504 54 12 4.3 5.2 0.00 0.41 0.00 80 1015.3
20260509002025 54 14 4.3 5.2 0.00 0.41 0.00 79 1015.3
20260509001504 54 10 2.6 3.5 0.00 0.41 0.00 79 1015.2
20260509001004 55 338 1.7 2.6 0.00 0.41 0.00 79 1015.2
20260509000504 55 352 2.6 3.5 0.00 0.41 0.00 79 1015.1
20260509000004 55 22 3.5 3.5 0.00 0.41 0.00 79 1015.3
20260508235524 55 18 3.5 4.3 0.00 0.41 0.00 79 1015.2
20260508235025 55 12 3.5 4.3 0.00 0.41 0.00 79 1015.2
20260508234503 55 11 4.3 4.3 0.00 0.41 0.00 80 1015.0
20260508234004 55 17 4.3 5.2 0.00 0.41 0.00 80 1015.1
20260508233504 55 20 4.3 5.2 0.00 0.41 0.00 80 1015.2
20260508233003 55 14 4.3 5.2 0.00 0.41 0.00 79 1015.1
20260508232504 55 11 4.3 4.3 0.00 0.41 0.00 79 1015.0
20260508232003 55 12 4.3 7.0 0.00 0.41 0.00 79 1015.2
20260508231003 55 15 5.2 7.0 0.00 0.41 0.00 80 1014.9
20260508230503 55 14 4.3 5.2 0.00 0.41 0.00 80 1015.0
20260508230003 55 12 4.3 5.2 0.00 0.41 0.00 80 1014.9
20260508225503 55 12 4.3 5.2 0.00 0.41 0.00 80 1015.1
20260508225003 55 14 3.5 5.2 0.00 0.41 0.00 80 1015.0
20260508224503 55 7 1.7 4.3 0.00 0.41 0.00 80 1015.2
20260508224003 55 6 0.9 1.7 0.00 0.41 0.00 80 1015.3
20260508223503 55 11 0.9 1.7 0.00 0.41 0.00 79 1015.2
20260508223003 55 17 0.0 1.7 0.00 0.41 0.00 79 1015.2
20260508222503 55 18 0.0 1.7 0.00 0.41 0.00 79 1015.2
20260508222003 55 21 0.9 2.6 0.00 0.41 0.00 80 1015.2
20260508221503 56 19 1.7 2.6 0.00 0.41 0.00 80 1015.2
20260508221003 56 19 1.7 2.6 0.00 0.41 0.00 80 1015.3
20260508220503 56 22 1.7 2.6 0.00 0.41 0.00 81 1015.1
20260508220003 56 21 0.9 2.6 0.00 0.41 0.00 81 1015.2
20260508215503 56 19 0.9 1.7 0.00 0.41 0.41 80 1015.0
20260508215003 55 19 0.0 1.7 0.00 0.41 0.41 80 1015.1
20260508214503 55 360 0.0 0.9 0.00 0.41 0.41 80 1015.1
20260508214024 55 22 0.0 0.9 0.00 0.41 0.41 80 1015.0
20260508213503 55 19 0.0 0.9 0.00 0.41 0.41 80 1015.1
20260508213003 55 17 0.0 0.9 0.00 0.41 0.41 80 1015.1
20260508212503 56 351 0.9 1.7 0.00 0.41 0.41 80 1015.2
20260508212003 56 3 1.7 2.6 0.00 0.41 0.41 79 1015.0
20260508211503 56 7 2.6 3.5 0.00 0.41 0.41 79 1015.0
20260508211003 57 359 2.6 3.5 0.00 0.41 0.41 79 1015.1
20260508210524 57 1 2.6 3.5 0.00 0.41 0.41 79 1015.0
20260508210024 57 8 1.7 3.5 0.00 0.41 0.41 80 1015.0
20260508205503 57 0 0.0 0.0 0.00 0.41 0.41 79 1015.1
20260508205024 57 0 0.0 0.0 0.00 0.41 0.41 78 1014.9
20260508204503 57 0 0.0 0.0 0.00 0.41 0.41 78 1014.9
20260508204003 57 0 0.0 0.0 0.00 0.41 0.41 78 1014.9